Vorticity
6 7 10 13 17 20 17 11 8 8 8 6 4 6 10 7 3 2 1 10 24 14 -1 0 2 6 8 -1 -3 5 11 7 5 7 4 7 10 7 9 6 7 12 16 19 13 8 8 9 13 13 10 9 9 10 5 7 13 8 5 5 3 4 3 3 4 5 6 6 5 5 7 7 7 8 8 8 8 7 7 6 6 6 4 4 5 4
6 5 10 14 14 16 16 12 10 8 8 7 6 7 9 10 6 5 6 1 6 14 8 4 1 -2 5 9 8 14 18 8 2 6 4 4 8 8 6 2 4 11 14 16 11 7 9 11 13 11 8 8 9 9 5 5 11 10 6 4 4 3 4 5 4 5 6 6 6 5 7 7 7 8 8 7 8 7 6 6 5 4 4 3 3 3
8 4 7 14 12 12 14 12 11 8 9 7 7 9 7 11 13 8 13 11 9 22 17 3 2 -1 -1 1 -3 4 14 9 3 6 5 5 9 6 3 3 4 10 14 13 10 7 8 11 11 10 8 7 9 9 6 5 8 11 9 6 6 5 5 6 5 5 5 6 6 5 6 7 7 8 8 7 8 7 6 6 5 3 3 3 3 3
8 5 8 13 11 11 13 13 12 8 9 8 8 12 6 9 14 -2 -1 8 10 24 23 3 -4 -1 7 8 -6 -8 2 7 6 6 4 4 8 4 -0 4 6 8 11 11 9 8 8 10 9 9 9 8 9 8 6 6 5 7 9 7 6 7 6 6 5 5 5 6 6 7 7 7 6 7 7 7 6 7 7 7 6 4 4 4 3 3
7 4 4 7 8 10 11 12 13 9 7 8 8 10 6 5 12 1 -5 7 11 12 13 8 0 -6 -2 7 7 3 1 4 5 7 8 2 2 5 3 7 9 6 8 11 9 7 7 9 10 9 10 10 9 8 7 7 5 4 4 5 5 6 7 6 7 6 5 7 6 6 8 7 5 5 5 7 7 8 9 8 7 6 4 3 3 3
6 5 5 4 6 9 10 9 11 12 9 9 9 8 6 3 8 4 -8 7 28 27 16 7 5 2 -5 -4 7 10 5 4 3 0 5 6 2 4 4 7 13 9 10 11 7 7 7 7 9 11 11 11 10 8 7 7 7 5 3 4 5 5 7 6 6 6 5 6 6 5 6 6 5 4 5 6 8 8 7 6 5 5 3 3 4 4
4 6 7 5 6 6 9 9 10 14 10 8 11 6 3 3 8 5 -18 -21 2 19 23 13 8 10 6 3 4 7 10 13 15 5 -3 2 5 4 4 7 11 11 11 10 6 7 9 7 8 10 10 11 11 9 9 8 7 7 5 5 5 6 6 6 6 7 6 6 6 5 5 5 4 3 4 5 6 7 6 6 6 6 6 5 5 5
5 5 7 7 7 2 4 9 11 16 11 11 15 9 6 4 6 8 -7 -20 -20 -12 6 15 17 14 9 10 6 7 12 6 13 17 3 -1 4 3 6 10 11 9 8 9 7 6 8 7 6 7 8 9 10 10 10 9 7 7 7 6 6 6 5 5 6 8 9 7 5 6 5 4 5 4 3 3 5 8 8 7 6 5 6 6 6 6
9 8 8 9 10 6 2 3 8 13 14 16 19 14 11 7 6 8 3 0 -5 -8 -3 -2 3 13 22 27 14 7 7 -6 1 17 7 -2 2 4 7 10 7 5 6 6 5 6 7 8 7 7 8 7 8 9 9 9 8 8 8 7 6 6 5 6 7 9 10 8 5 6 5 4 5 4 3 3 5 7 8 7 7 5 6 7 6 6
7 8 8 8 8 10 7 2 2 7 11 15 17 16 13 6 7 8 5 6 4 3 7 -2 -13 -5 18 30 18 9 2 -9 2 16 9 2 5 8 8 10 7 3 6 6 5 7 7 9 10 8 9 9 8 7 7 8 8 8 8 8 6 5 7 8 9 10 9 9 7 6 6 5 5 4 4 5 6 6 8 8 7 7 6 7 5 4
5 5 5 5 5 6 7 5 3 3 7 12 12 15 18 12 10 8 7 8 1 -2 7 9 -1 -12 -2 10 8 11 5 -10 -6 7 10 7 7 8 4 8 10 5 7 7 5 7 8 9 11 10 10 10 9 8 8 8 7 8 9 9 8 7 10 11 9 8 7 8 8 6 6 6 5 6 6 6 7 6 7 8 8 7 5 5 5 4
6 4 1 3 7 6 4 4 5 3 4 8 8 12 18 18 14 8 7 4 -3 1 5 9 11 -1 -0 11 7 6 11 4 -3 3 16 15 9 8 4 8 11 6 6 7 4 5 6 8 11 14 14 11 11 11 10 10 8 8 10 10 11 11 12 12 8 7 7 6 7 6 6 7 6 7 7 5 6 6 6 6 5 4 3 4 4 3
6 8 5 5 6 5 7 5 4 4 3 3 4 10 17 17 12 7 5 -3 -6 7 11 6 7 -2 -2 15 17 10 10 13 8 9 19 12 3 9 9 7 8 7 6 6 6 6 5 8 10 12 14 11 11 11 10 12 10 8 11 12 13 13 12 11 7 6 6 5 6 5 5 7 7 6 6 5 4 4 4 4 3 4 4 4 3 2
7 7 6 8 4 1 7 8 4 2 3 3 0 5 13 13 11 12 9 4 3 9 11 8 3 -2 1 8 16 21 18 15 12 15 26 15 1 14 17 5 3 8 8 5 6 7 5 8 8 7 11 10 9 10 10 11 10 9 11 11 12 12 10 8 6 5 4 4 4 5 6 6 6 6 6 5 4 5 5 4 4 4 4 4 4 5
6 6 6 9 8 3 3 8 10 7 4 3 1 3 7 7 9 15 12 8 10 9 7 10 5 3 11 9 9 20 23 25 20 15 29 23 -3 -1 11 11 7 4 4 5 5 7 6 7 8 6 7 7 8 11 10 9 11 10 9 9 9 8 7 5 4 4 3 4 5 6 7 6 6 6 6 5 4 5 6 5 4 3 3 3 4 5
6 7 9 11 13 10 6 6 9 10 9 6 4 2 2 6 8 11 12 10 16 17 7 7 9 8 13 15 17 17 10 21 28 14 20 27 2 -14 -4 12 14 1 1 10 8 6 8 6 7 7 5 6 8 10 10 9 10 10 8 8 6 5 5 4 4 5 5 6 7 7 7 6 6 6 5 5 4 5 7 7 6 4 3 3 3 3
6 7 8 8 11 10 7 8 6 5 10 11 10 7 5 9 11 7 7 7 12 19 12 3 5 12 16 16 22 22 10 15 24 13 14 22 13 1 -5 0 9 6 8 17 11 7 10 7 7 9 6 6 8 9 11 10 9 9 7 7 6 5 5 4 4 5 5 6 6 5 6 6 6 5 5 5 4 4 6 7 7 7 6 5 4 4
5 6 10 7 6 11 7 7 9 4 6 9 9 13 13 8 8 7 4 4 6 9 12 4 -6 5 17 12 14 21 20 23 22 12 14 15 12 12 4 -6 1 9 14 16 9 5 9 8 6 8 8 6 8 9 10 9 8 7 6 5 6 6 5 5 5 5 6 6 4 4 5 5 6 7 6 6 4 4 5 6 7 7 7 7 6 5
2 2 16 14 -2 6 13 5 7 6 2 6 4 7 15 10 5 8 4 4 10 8 10 9 -3 -1 7 8 18 21 14 21 22 12 14 16 12 13 9 -1 -2 5 11 13 9 6 9 9 6 8 9 7 8 8 7 8 8 6 6 5 5 5 5 6 7 8 7 6 5 4 4 4 6 6 7 7 7 6 6 6 6 6 6 7 7 7
4 -9 12 36 13 -3 11 5 1 6 1 2 5 -0 8 13 6 9 9 2 6 7 7 14 16 13 4 -1 16 21 10 17 19 8 8 9 11 16 10 -0 -3 1 7 13 14 12 10 9 7 6 7 7 7 7 6 6 6 6 7 6 6 6 6 7 8 8 7 6 6 5 5 5 5 6 7 8 8 7 7 5 5 5 5 5 6 6
10 -16 -20 32 43 8 5 6 -3 6 5 -2 6 3 0 9 7 7 14 8 5 7 3 8 19 26 23 12 12 15 14 18 16 12 16 11 11 18 11 1 1 5 10 15 15 10 7 9 9 7 8 9 9 9 7 6 5 6 6 7 8 8 8 10 9 7 7 8 7 7 7 6 6 7 7 7 7 7 6 6 6 6 6 8 8 8
12 -1 -40 -4 50 24 1 13 5 3 11 2 4 9 1 3 5 3 8 10 10 8 2 -2 -6 5 26 24 13 16 18 14 11 13 18 14 13 16 10 2 0 2 13 19 10 4 7 8 7 8 10 11 11 11 11 8 6 6 6 7 9 9 10 11 9 7 7 6 6 6 6 6 6 6 7 7 8 6 5 6 7 8 9 10 10 10
8 13 -33 -32 39 40 -5 5 12 1 11 11 3 10 7 -0 3 3 1 6 10 8 8 4 -16 -10 25 28 15 22 18 5 6 6 6 9 12 13 11 5 -4 -6 9 19 10 4 9 6 3 9 13 12 11 11 11 10 8 7 7 7 8 8 7 7 6 7 8 7 7 6 5 6 6 6 7 8 6 4 5 7 8 9 10 9 9 9
5 17 -14 -46 14 65 27 5 16 4 3 12 4 4 10 4 2 3 -1 0 5 4 8 10 -7 -5 22 24 16 24 17 4 5 6 8 11 10 12 12 6 3 2 7 12 9 6 9 6 3 7 10 9 8 7 7 9 10 10 7 4 6 6 6 6 4 3 6 8 8 7 6 6 6 8 9 7 5 4 5 7 8 8 8 8 9 9
3 13 12 -40 -37 38 45 9 13 9 -5 6 8 1 6 7 3 5 3 -1 1 3 6 8 2 3 12 12 16 24 17 9 8 9 12 12 9 13 9 -1 5 15 13 8 5 5 7 7 3 4 6 7 9 12 12 9 9 12 9 4 3 3 4 6 4 2 3 5 7 8 8 8 7 8 9 6 5 5 5 7 8 9 9 8 8 9
6 2 20 -12 -55 -14 27 10 9 14 1 1 8 5 5 6 4 6 6 2 2 3 4 5 6 11 11 3 12 25 16 8 9 7 10 10 4 3 -0 -4 5 17 17 8 3 3 3 3 3 2 4 5 6 14 19 13 7 8 10 8 5 2 1 3 4 3 2 2 5 7 8 10 9 9 9 7 5 6 6 8 8 9 9 7 8 10
13 0 12 10 -28 -25 13 18 10 12 11 5 4 5 6 6 6 6 5 5 5 2 3 2 -2 10 13 -4 5 31 24 9 9 8 7 8 1 -8 -7 1 7 13 15 9 5 5 3 2 3 1 2 4 1 3 12 13 8 6 8 8 8 5 2 4 5 3 3 3 6 7 7 9 9 8 8 6 5 6 6 6 8 9 8 7 9 13
11 6 9 14 -3 -21 -10 7 7 5 9 7 5 7 6 5 6 6 5 5 5 4 5 -1 -7 8 15 -4 0 23 18 5 9 8 4 5 4 -1 -1 4 8 13 16 10 4 5 5 6 5 1 1 4 1 -3 -1 5 8 8 8 7 8 8 6 7 8 6 6 5 5 8 8 6 7 6 6 5 4 5 6 7 8 9 7 8 12 13
7 8 11 11 11 -1 -12 -3 7 9 6 2 5 8 5 5 5 4 8 8 5 6 7 2 -0 3 -2 -9 4 19 15 11 11 4 1 2 3 4 3 6 11 14 13 8 4 3 4 7 8 4 1 2 3 0 -3 -0 4 5 7 6 6 8 8 8 9 11 13 11 7 8 8 6 6 5 5 6 5 6 7 8 8 7 7 11 12 11
4 6 12 9 12 12 2 -4 -3 6 10 3 3 6 5 10 11 5 6 6 7 9 6 4 7 3 -5 2 16 15 8 10 5 -2 2 5 4 6 7 8 12 11 6 5 7 5 2 3 6 4 1 1 3 2 -1 -0 1 1 3 4 3 6 8 8 10 14 18 19 13 8 7 5 5 4 5 6 6 6 7 7 7 7 8 11 11 10
-0 2 13 13 11 9 8 6 -4 -3 9 9 5 3 -0 6 13 11 8 5 7 9 7 7 8 4 4 9 8 -2 -3 5 6 6 10 8 7 12 12 10 10 7 3 3 7 9 4 5 6 3 2 3 3 4 1 -2 -0 0 2 3 1 4 9 8 10 15 19 21 18 11 8 8 7 6 7 6 5 7 8 8 8 8 10 12 11 10
1 9 12 8 10 7 5 10 5 -4 -0 8 10 5 -3 -4 -2 2 6 5 6 7 7 9 8 4 8 11 9 8 15 20 19 20 18 11 10 13 10 8 8 5 4 5 6 7 6 9 9 3 2 4 4 8 6 1 1 2 2 2 1 3 9 9 8 11 15 18 18 15 11 11 10 10 10 7 5 8 10 9 9 9 11 12 11 11
3 12 10 4 9 10 5 9 10 2 -2 2 9 8 4 2 -2 -1 2 3 7 12 9 8 8 7 9 12 13 11 9 13 17 18 16 13 13 13 9 10 11 7 7 9 9 8 8 12 14 9 5 4 4 9 12 7 4 3 3 4 3 3 8 9 7 7 10 12 15 18 16 14 14 12 9 6 6 10 13 13 11 10 10 10 10 10
8 7 5 6 5 5 11 11 5 8 9 3 3 5 4 5 4 3 3 2 6 12 9 7 11 14 10 9 11 3 -10 -6 7 11 10 11 14 16 14 13 14 13 13 15 15 15 11 9 12 14 11 8 6 9 14 13 7 4 3 4 5 4 5 8 11 11 10 10 12 15 15 14 12 10 9 10 11 13 16 16 13 9 8 9 9 9
11 6 5 11 2 -2 16 18 4 8 12 2 0 6 4 4 5 5 4 3 4 6 5 6 10 13 11 8 11 6 -9 -13 -2 4 6 8 10 13 13 13 14 13 13 14 16 18 18 14 13 15 15 14 11 10 14 15 10 6 4 4 6 5 3 10 18 16 12 11 11 11 10 9 10 11 12 14 13 13 15 14 12 10 9 9 9 8
11 7 6 10 1 -7 9 20 12 7 5 0 4 7 4 2 3 4 5 5 5 3 2 5 7 9 13 10 8 9 2 -8 -7 -2 3 6 6 7 9 10 10 10 8 8 10 11 16 20 21 22 22 20 17 14 14 15 13 11 8 5 5 4 2 8 15 13 12 13 14 16 15 14 13 13 13 12 9 10 12 13 13 11 8 8 8 7
12 11 8 8 5 -2 0 12 20 16 8 4 7 6 6 6 4 4 6 5 6 7 5 6 8 8 12 11 5 6 7 -0 -3 1 4 4 2 3 6 6 7 10 9 9 10 8 7 10 13 17 21 22 21 19 18 17 16 15 13 9 6 4 4 7 9 8 10 12 12 13 14 13 11 8 8 9 8 8 10 13 14 10 7 8 9 9
12 12 11 6 5 5 1 1 12 22 19 13 14 8 -0 2 4 3 5 5 4 8 9 8 9 7 4 6 6 6 9 7 4 7 10 8 5 3 4 4 3 4 6 7 10 11 7 6 6 8 12 16 18 19 19 19 18 16 17 17 12 7 4 6 8 6 4 5 5 4 5 6 4 3 4 6 6 5 6 9 11 10 8 7 5 5
17 13 14 11 5 6 6 -5 -3 14 19 19 33 30 3 -1 9 3 2 8 6 6 10 6 6 9 7 7 8 5 5 4 0 2 6 9 10 7 4 3 1 -0 3 4 5 7 7 6 7 6 5 5 8 13 16 18 17 15 15 18 19 16 9 3 4 5 3 3 3 2 3 3 2 3 6 7 7 6 6 7 9 9 8 6 4 5
19 16 13 14 7 4 7 -1 -7 8 17 12 26 37 17 4 9 1 -2 10 9 8 18 14 6 10 10 8 6 2 0 1 -1 1 4 3 7 9 6 6 5 3 3 4 3 3 4 4 5 5 3 1 2 6 10 12 14 14 12 13 16 18 14 7 4 4 4 4 5 4 4 4 5 7 8 10 9 7 6 9 9 7 7 7 8 9
8 17 16 14 10 7 10 4 -14 -7 17 12 4 27 34 13 4 7 10 13 4 -1 14 20 13 11 8 4 4 2 1 2 0 2 5 3 4 8 7 6 6 4 4 5 4 3 3 2 3 4 4 3 4 6 8 8 10 12 12 11 11 11 12 12 9 6 4 4 5 5 5 6 8 8 8 8 8 7 9 9 7 5 4 5 6 6
-1 5 14 15 12 6 7 6 -15 -19 17 26 -0 13 39 22 8 16 16 12 6 -2 2 11 12 10 7 4 6 5 3 3 3 3 6 7 5 7 8 8 7 5 5 5 4 4 4 3 3 4 4 5 6 9 9 7 6 8 10 10 9 7 8 12 12 8 5 3 3 4 5 4 5 6 6 5 4 5 7 6 5 4 3 3 3 2
22 5 6 10 16 14 6 8 -4 -19 6 24 -3 -7 14 9 5 15 9 4 9 4 1 7 7 7 8 5 5 6 2 2 4 4 5 7 4 4 8 10 9 9 7 5 3 3 3 2 3 5 5 3 4 8 10 8 6 6 7 10 10 7 5 10 13 11 7 3 1 3 4 3 3 3 3 3 3 3 3 5 5 2 1 2 3 2
43 31 19 7 8 13 6 6 4 -12 -6 11 2 -2 5 -6 -7 8 7 3 9 6 4 9 7 5 8 6 6 8 3 1 5 5 6 7 4 4 7 9 10 12 11 9 6 5 5 5 5 6 6 4 4 5 7 7 6 4 5 7 10 9 6 7 11 13 10 6 3 3 4 3 3 4 3 2 3 2 1 2 2 0 -0 1 2 2
27 36 40 29 14 7 -2 -2 5 -1 -5 -1 1 11 18 -0 -10 1 2 -1 5 4 2 7 8 7 9 6 5 7 4 2 5 5 6 8 6 5 7 8 10 11 12 12 10 7 7 7 6 6 5 5 5 5 6 6 6 6 5 5 7 9 8 7 9 11 12 10 7 4 4 3 3 3 3 2 1 1 1 1 1 0 -0 0 2 4
12 12 28 39 34 22 9 4 8 7 3 -1 -4 4 14 7 1 7 5 1 3 0 -3 0 3 4 7 7 6 6 5 4 5 5 6 9 9 8 9 8 8 9 10 12 11 9 8 8 7 7 6 5 6 6 5 7 7 6 6 5 5 7 7 8 9 9 10 12 10 6 5 4 3 2 3 3 3 4 4 4 4 2 1 2 6 8
25 12 14 23 27 26 22 16 14 11 8 9 5 1 3 5 4 5 6 6 6 3 0 1 0 0 5 7 6 6 4 3 3 4 6 8 7 7 8 8 8 7 7 9 10 10 10 9 8 8 8 7 7 6 5 7 7 7 7 7 6 7 7 8 9 9 9 10 10 9 7 5 3 2 2 2 2 3 3 4 3 3 4 6 8 9
29 24 19 15 13 17 19 16 17 16 8 6 7 2 2 6 5 3 4 4 5 5 5 5 3 2 3 4 5 6 6 6 6 6 5 6 7 7 7 6 7 7 6 6 8 10 11 11 11 10 9 9 8 7 7 7 7 6 7 7 8 8 8 8 8 9 9 8 8 8 8 8 7 6 5 4 4 4 5 5 6 7 9 9 8 7
20 24 24 22 18 16 12 9 16 23 17 8 4 1 5 9 7 5 4 1 1 4 6 6 6 6 4 5 6 6 6 7 9 7 5 4 4 5 6 5 5 6 6 4 3 5 8 10 10 10 10 10 10 9 9 9 8 7 7 7 7 8 9 9 9 9 9 8 7 7 7 8 9 9 8 8 9 8 8 8 8 8 7 6 6 4
19 18 20 28 29 24 15 8 8 14 15 11 7 7 12 12 8 5 6 5 3 3 4 5 7 7 6 7 8 8 7 8 8 8 10 10 7 6 5 5 5 6 6 6 4 2 3 5 7 8 9 10 10 11 10 10 10 9 8 9 8 8 9 10 10 9 8 8 8 7 6 6 6 6 6 7 7 7 7 6 5 5 4 3 2 1
27 24 19 25 30 28 26 21 13 9 9 9 10 12 12 8 5 4 4 4 6 6 5 6 6 6 6 6 7 8 9 8 8 8 7 7 8 8 7 6 7 6 5 6 6 6 5 4 3 5 7 7 8 9 10 11 12 11 11 11 10 9 9 9 9 9 8 8 7 6 5 6 5 5 5 6 6 6 6 6 5 4 4 3 3 5
Height
5848 5849 5851 5853 5854 5856 5857 5860 5862 5864 5865 5867 5869 5871 5873 5875 5876 5878 5879 5879 5879 5880 5881 5882 5884 5885 5886 5887 5887 5887 5887 5888 5889 5889 5889 5889 5889 5890 5891 5890 5891 5891 5888 5887 5889 5890 5891 5893 5894 5896 5897 5899 5901 5903 5905 5906 5907 5909 5911 5913 5914 5915 5917 5918 5919 5920 5921 5923 5924 5926 5927 5928 5929 5930 5931 5931 5932 5933 5935 5935 5936 5937 5937 5938 5938 5938
5845 5847 5850 5851 5851 5852 5854 5856 5858 5860 5862 5864 5866 5868 5870 5872 5874 5876 5877 5876 5876 5878 5879 5880 5883 5883 5884 5885 5885 5886 5886 5886 5887 5888 5888 5888 5888 5889 5890 5890 5890 5890 5888 5887 5889 5890 5891 5892 5893 5895 5897 5898 5900 5903 5904 5905 5907 5908 5910 5912 5913 5915 5916 5917 5918 5919 5921 5922 5924 5925 5926 5927 5928 5929 5930 5931 5932 5933 5935 5936 5937 5937 5937 5938 5938 5938
5844 5847 5848 5847 5847 5848 5850 5851 5853 5856 5858 5860 5862 5865 5867 5870 5873 5875 5876 5874 5874 5876 5877 5879 5880 5881 5882 5883 5884 5885 5885 5885 5886 5887 5887 5887 5887 5888 5888 5888 5889 5889 5887 5886 5888 5889 5890 5891 5893 5895 5896 5898 5899 5901 5903 5905 5906 5908 5910 5912 5913 5915 5916 5916 5917 5919 5920 5922 5923 5925 5926 5927 5928 5929 5930 5931 5932 5933 5935 5936 5937 5937 5937 5938 5938 5938
5842 5844 5843 5843 5844 5846 5847 5849 5850 5852 5854 5856 5858 5862 5864 5868 5870 5872 5874 5873 5872 5875 5876 5877 5878 5879 5880 5880 5881 5882 5884 5884 5885 5886 5886 5886 5886 5886 5886 5886 5888 5888 5886 5885 5887 5889 5890 5891 5893 5894 5896 5897 5898 5900 5903 5905 5907 5908 5910 5911 5913 5914 5915 5916 5917 5918 5919 5921 5923 5924 5925 5927 5928 5929 5930 5931 5932 5933 5934 5935 5936 5937 5937 5938 5938 5938
5839 5839 5838 5840 5841 5843 5845 5846 5847 5848 5850 5852 5855 5858 5862 5865 5867 5869 5873 5873 5871 5873 5874 5874 5875 5875 5876 5877 5878 5881 5882 5882 5883 5884 5884 5884 5884 5883 5884 5886 5887 5887 5886 5885 5886 5888 5889 5891 5892 5894 5895 5897 5898 5900 5901 5904 5906 5907 5908 5910 5911 5913 5914 5915 5916 5917 5919 5921 5922 5924 5925 5926 5928 5929 5929 5930 5931 5932 5934 5935 5936 5937 5937 5938 5938 5938
5835 5835 5835 5837 5839 5840 5841 5843 5844 5846 5847 5849 5852 5855 5859 5862 5863 5865 5870 5872 5870 5868 5869 5872 5872 5873 5874 5876 5877 5879 5880 5881 5881 5882 5883 5883 5883 5882 5882 5884 5884 5884 5885 5884 5885 5888 5889 5891 5892 5894 5895 5896 5898 5899 5900 5902 5904 5906 5907 5909 5910 5912 5913 5914 5915 5917 5918 5920 5921 5923 5924 5925 5926 5927 5928 5929 5930 5932 5933 5935 5936 5936 5937 5937 5938 5938
5831 5831 5833 5835 5836 5837 5839 5840 5842 5843 5844 5846 5849 5853 5855 5856 5857 5860 5864 5866 5865 5865 5867 5869 5869 5872 5874 5874 5875 5876 5878 5880 5878 5879 5881 5881 5882 5881 5880 5881 5880 5882 5885 5882 5883 5888 5890 5891 5892 5893 5894 5896 5897 5899 5900 5901 5903 5905 5906 5908 5909 5911 5912 5914 5915 5916 5918 5919 5921 5922 5923 5924 5925 5926 5927 5929 5930 5932 5933 5934 5935 5936 5936 5937 5937 5938
5828 5829 5830 5832 5833 5834 5836 5838 5840 5841 5842 5844 5848 5850 5851 5852 5853 5856 5859 5859 5860 5862 5865 5867 5868 5870 5870 5870 5872 5874 5878 5879 5874 5875 5879 5879 5880 5880 5880 5880 5880 5882 5884 5880 5882 5887 5890 5891 5892 5893 5893 5894 5896 5898 5900 5902 5903 5904 5906 5907 5909 5910 5912 5913 5914 5916 5917 5918 5920 5921 5922 5923 5924 5925 5927 5928 5930 5931 5932 5934 5934 5935 5936 5936 5937 5937
5827 5825 5827 5830 5830 5831 5834 5836 5837 5838 5840 5843 5846 5846 5848 5850 5852 5854 5856 5856 5858 5860 5861 5863 5867 5867 5866 5868 5870 5872 5874 5873 5870 5873 5877 5877 5878 5879 5878 5879 5879 5881 5881 5880 5883 5887 5889 5891 5892 5892 5893 5894 5895 5897 5899 5901 5902 5904 5905 5906 5908 5910 5911 5912 5913 5915 5916 5917 5919 5920 5921 5922 5923 5925 5926 5928 5929 5930 5931 5932 5933 5934 5935 5936 5936 5937
5820 5820 5823 5825 5825 5829 5832 5833 5833 5835 5839 5841 5842 5843 5846 5847 5848 5851 5852 5855 5856 5854 5855 5859 5862 5863 5863 5866 5867 5868 5869 5868 5868 5872 5874 5874 5877 5878 5877 5877 5879 5880 5879 5881 5885 5887 5888 5890 5891 5892 5893 5894 5895 5897 5898 5900 5901 5903 5905 5906 5908 5909 5911 5912 5913 5914 5915 5916 5918 5919 5921 5922 5923 5924 5926 5927 5928 5929 5930 5931 5932 5933 5934 5935 5936 5936
5814 5816 5818 5818 5822 5826 5827 5828 5829 5833 5835 5836 5838 5840 5842 5843 5846 5848 5850 5853 5851 5848 5851 5856 5858 5859 5860 5862 5863 5864 5866 5867 5867 5869 5871 5872 5874 5876 5876 5876 5878 5880 5881 5883 5885 5886 5887 5889 5890 5892 5894 5894 5895 5896 5898 5899 5901 5903 5905 5906 5907 5909 5910 5911 5912 5913 5914 5916 5918 5919 5920 5921 5923 5924 5925 5926 5927 5928 5929 5930 5931 5932 5933 5934 5935 5936
5809 5811 5812 5814 5820 5822 5822 5824 5826 5830 5831 5832 5834 5836 5839 5841 5844 5845 5847 5848 5845 5843 5849 5854 5856 5856 5856 5859 5862 5863 5864 5866 5865 5866 5869 5872 5872 5874 5875 5874 5877 5880 5881 5883 5884 5885 5886 5887 5889 5891 5893 5894 5895 5896 5897 5899 5901 5902 5904 5905 5907 5908 5910 5911 5912 5913 5914 5916 5918 5919 5920 5921 5923 5924 5925 5926 5926 5927 5929 5930 5931 5932 5932 5933 5934 5935
5806 5807 5809 5813 5818 5817 5817 5821 5823 5825 5827 5828 5831 5833 5835 5838 5839 5841 5842 5842 5841 5843 5849 5852 5853 5853 5852 5856 5860 5861 5863 5863 5863 5864 5867 5870 5871 5871 5873 5873 5875 5877 5879 5882 5883 5884 5886 5887 5889 5890 5892 5893 5894 5895 5896 5898 5899 5901 5903 5905 5906 5908 5909 5911 5912 5913 5914 5916 5917 5918 5920 5921 5922 5923 5924 5925 5926 5927 5928 5929 5930 5931 5931 5932 5933 5934
5801 5802 5804 5809 5813 5812 5813 5817 5818 5821 5823 5825 5828 5830 5832 5835 5836 5837 5839 5840 5842 5844 5847 5850 5850 5850 5851 5854 5856 5859 5861 5862 5863 5864 5865 5869 5869 5868 5870 5872 5874 5875 5877 5880 5881 5883 5884 5886 5888 5889 5891 5892 5893 5894 5895 5896 5898 5900 5902 5904 5905 5907 5909 5910 5912 5913 5914 5915 5916 5918 5919 5921 5922 5923 5923 5924 5925 5926 5927 5928 5929 5930 5931 5931 5932 5933
5795 5796 5799 5805 5809 5808 5810 5814 5816 5819 5822 5823 5826 5829 5831 5832 5834 5836 5838 5839 5841 5843 5845 5846 5846 5848 5850 5852 5853 5856 5858 5859 5861 5862 5863 5866 5867 5866 5868 5871 5872 5874 5875 5877 5879 5881 5883 5885 5887 5888 5890 5891 5892 5893 5894 5896 5897 5899 5901 5902 5904 5906 5908 5910 5911 5912 5914 5914 5916 5917 5918 5920 5921 5922 5923 5923 5924 5925 5926 5927 5928 5929 5930 5931 5931 5932
5790 5793 5799 5803 5806 5806 5808 5812 5814 5816 5818 5821 5823 5825 5827 5831 5833 5835 5836 5838 5840 5842 5843 5842 5843 5847 5848 5849 5851 5853 5855 5856 5858 5860 5860 5863 5864 5864 5865 5868 5870 5872 5873 5874 5876 5879 5882 5884 5886 5887 5889 5890 5891 5893 5894 5896 5897 5898 5900 5901 5903 5905 5906 5908 5910 5911 5913 5913 5915 5916 5917 5919 5920 5921 5922 5923 5924 5925 5926 5927 5928 5929 5929 5930 5931 5931
5786 5791 5795 5796 5800 5802 5804 5808 5810 5812 5815 5817 5819 5822 5828 5831 5831 5831 5834 5836 5837 5838 5840 5841 5842 5844 5845 5846 5848 5850 5852 5853 5855 5857 5858 5859 5861 5863 5863 5865 5868 5870 5871 5874 5876 5877 5880 5883 5884 5886 5888 5890 5891 5892 5894 5895 5896 5897 5899 5900 5902 5904 5905 5907 5909 5910 5911 5913 5914 5915 5917 5918 5919 5920 5921 5922 5923 5924 5925 5926 5927 5928 5929 5929 5930 5930
5780 5786 5789 5789 5794 5797 5800 5804 5805 5808 5812 5812 5815 5822 5826 5825 5825 5827 5831 5832 5833 5835 5838 5840 5841 5842 5843 5844 5846 5847 5848 5850 5851 5853 5855 5856 5858 5861 5862 5863 5867 5869 5870 5873 5874 5875 5878 5881 5883 5885 5887 5889 5890 5892 5893 5894 5895 5896 5898 5899 5901 5903 5905 5907 5908 5909 5911 5912 5914 5915 5916 5918 5919 5920 5920 5921 5922 5923 5924 5926 5927 5927 5928 5929 5929 5930
5775 5781 5784 5784 5788 5792 5796 5799 5799 5802 5806 5808 5813 5818 5818 5818 5820 5824 5827 5828 5830 5833 5836 5838 5840 5840 5841 5843 5844 5845 5846 5847 5848 5850 5852 5853 5855 5859 5862 5863 5864 5867 5869 5870 5871 5873 5877 5880 5882 5884 5886 5887 5889 5890 5892 5893 5894 5895 5897 5899 5901 5903 5904 5905 5907 5909 5910 5912 5913 5914 5916 5917 5918 5919 5920 5921 5921 5922 5923 5924 5925 5926 5927 5928 5928 5929
5770 5777 5782 5780 5781 5786 5790 5791 5791 5795 5801 5805 5808 5810 5811 5814 5818 5822 5824 5826 5829 5832 5834 5837 5838 5839 5840 5841 5842 5843 5845 5845 5846 5847 5849 5851 5854 5857 5860 5861 5862 5864 5867 5869 5870 5873 5876 5878 5881 5883 5884 5886 5887 5889 5890 5892 5893 5895 5897 5898 5900 5902 5903 5905 5907 5909 5910 5911 5912 5914 5915 5916 5917 5918 5919 5920 5921 5922 5922 5923 5924 5925 5925 5926 5927 5927
5762 5769 5778 5775 5772 5778 5782 5784 5788 5792 5796 5801 5802 5803 5807 5811 5815 5818 5821 5823 5826 5829 5833 5835 5838 5839 5838 5838 5840 5841 5843 5844 5845 5846 5847 5850 5852 5855 5858 5859 5860 5862 5866 5868 5869 5871 5874 5876 5879 5881 5882 5884 5885 5887 5889 5891 5893 5894 5896 5898 5899 5901 5903 5905 5906 5908 5909 5910 5911 5913 5914 5915 5916 5916 5917 5918 5919 5920 5921 5921 5922 5923 5924 5924 5925 5925
5756 5763 5772 5769 5765 5772 5779 5783 5788 5790 5793 5798 5800 5802 5805 5809 5813 5816 5817 5820 5824 5827 5829 5832 5838 5838 5834 5834 5838 5839 5840 5842 5842 5844 5846 5848 5851 5853 5856 5857 5858 5861 5865 5867 5866 5867 5870 5874 5876 5878 5880 5882 5884 5886 5888 5890 5892 5893 5895 5897 5898 5900 5902 5904 5905 5906 5907 5908 5910 5911 5912 5913 5914 5915 5916 5917 5918 5919 5919 5920 5921 5921 5922 5923 5923 5923
5750 5756 5764 5763 5762 5769 5776 5780 5784 5786 5788 5793 5797 5800 5803 5807 5811 5814 5815 5818 5821 5824 5826 5829 5834 5834 5830 5833 5837 5836 5837 5840 5840 5842 5844 5846 5849 5851 5854 5856 5857 5860 5863 5865 5864 5865 5869 5871 5873 5875 5878 5880 5882 5885 5886 5888 5890 5892 5894 5896 5897 5899 5901 5903 5904 5905 5906 5907 5908 5909 5910 5911 5912 5913 5914 5915 5916 5917 5917 5918 5919 5919 5920 5921 5921 5921
5743 5749 5757 5760 5761 5765 5771 5774 5778 5781 5783 5785 5789 5794 5798 5803 5807 5811 5813 5815 5818 5821 5824 5827 5830 5830 5829 5832 5833 5833 5835 5838 5838 5840 5843 5845 5848 5850 5852 5855 5856 5857 5859 5861 5862 5864 5867 5870 5872 5874 5877 5879 5881 5883 5885 5887 5889 5891 5893 5894 5896 5898 5899 5900 5902 5903 5905 5906 5907 5907 5908 5909 5910 5911 5912 5913 5914 5915 5915 5916 5917 5917 5918 5918 5919 5919
5733 5742 5749 5753 5757 5760 5763 5766 5769 5772 5775 5778 5783 5789 5793 5798 5802 5807 5810 5812 5815 5819 5821 5825 5828 5828 5828 5830 5831 5832 5835 5837 5838 5841 5843 5844 5846 5849 5851 5852 5851 5853 5856 5858 5860 5863 5866 5869 5872 5874 5876 5878 5880 5882 5884 5886 5887 5889 5891 5892 5894 5896 5897 5898 5899 5901 5903 5904 5905 5906 5907 5908 5909 5910 5911 5912 5912 5913 5913 5914 5915 5915 5916 5916 5917 5917
5725 5734 5739 5745 5751 5755 5757 5760 5763 5767 5771 5775 5779 5783 5789 5794 5798 5803 5806 5808 5812 5815 5817 5822 5825 5824 5826 5829 5829 5830 5832 5835 5837 5840 5841 5842 5844 5845 5846 5846 5849 5852 5855 5857 5859 5863 5865 5868 5870 5872 5874 5877 5878 5880 5883 5885 5886 5887 5889 5891 5892 5893 5894 5896 5897 5899 5901 5902 5902 5904 5906 5907 5908 5909 5909 5910 5910 5911 5911 5912 5913 5913 5914 5914 5914 5914
5721 5727 5731 5738 5746 5750 5753 5756 5759 5763 5768 5772 5775 5779 5784 5790 5794 5798 5801 5803 5808 5812 5814 5818 5821 5821 5823 5827 5828 5828 5831 5833 5836 5838 5839 5840 5841 5841 5842 5845 5850 5853 5856 5857 5859 5862 5864 5867 5869 5871 5872 5874 5876 5877 5880 5883 5884 5886 5887 5889 5890 5891 5893 5895 5896 5898 5899 5900 5901 5902 5904 5905 5906 5907 5907 5907 5908 5909 5909 5910 5911 5911 5912 5912 5912 5912
5716 5721 5726 5734 5739 5741 5746 5749 5752 5756 5762 5767 5771 5775 5780 5785 5789 5792 5796 5800 5805 5808 5811 5814 5817 5818 5821 5825 5826 5826 5828 5830 5832 5835 5836 5837 5838 5839 5842 5846 5849 5852 5854 5857 5859 5861 5863 5865 5867 5869 5870 5872 5874 5875 5877 5879 5882 5883 5885 5887 5888 5889 5891 5893 5894 5896 5897 5898 5898 5900 5902 5903 5903 5904 5905 5905 5905 5906 5907 5908 5908 5909 5909 5910 5910 5910
5708 5715 5723 5729 5733 5735 5739 5743 5747 5751 5756 5761 5766 5771 5774 5779 5783 5788 5793 5798 5802 5805 5808 5811 5814 5816 5820 5823 5824 5824 5825 5828 5830 5832 5832 5833 5835 5838 5840 5843 5846 5850 5851 5853 5856 5859 5862 5864 5865 5867 5868 5869 5871 5873 5874 5876 5878 5880 5883 5884 5886 5887 5889 5890 5892 5893 5894 5895 5896 5897 5899 5900 5901 5901 5902 5903 5904 5904 5905 5906 5906 5907 5907 5908 5908 5909
5702 5710 5717 5721 5727 5732 5735 5738 5741 5744 5749 5756 5761 5766 5769 5773 5778 5783 5790 5795 5798 5803 5806 5806 5809 5813 5817 5821 5822 5821 5823 5825 5826 5827 5827 5829 5832 5834 5837 5840 5844 5848 5847 5848 5852 5856 5858 5861 5862 5863 5865 5866 5868 5871 5872 5874 5875 5877 5879 5881 5883 5884 5886 5887 5889 5890 5891 5892 5893 5894 5895 5897 5898 5899 5900 5901 5902 5902 5903 5903 5904 5905 5906 5906 5907 5907
5699 5704 5707 5711 5717 5723 5728 5733 5737 5739 5745 5750 5754 5760 5765 5769 5772 5778 5785 5790 5794 5798 5801 5801 5804 5809 5813 5817 5817 5817 5818 5820 5822 5824 5826 5828 5831 5833 5836 5839 5841 5843 5843 5844 5848 5851 5854 5856 5858 5860 5862 5863 5866 5868 5870 5872 5873 5874 5876 5878 5880 5882 5883 5884 5886 5887 5888 5889 5890 5891 5892 5894 5896 5897 5897 5898 5899 5900 5901 5901 5902 5903 5904 5904 5905 5905
5691 5693 5698 5705 5710 5715 5722 5728 5732 5735 5738 5742 5748 5755 5759 5761 5765 5771 5778 5784 5787 5791 5794 5797 5801 5805 5810 5813 5814 5816 5819 5821 5823 5825 5827 5829 5831 5833 5835 5836 5838 5840 5841 5842 5845 5848 5851 5853 5855 5857 5859 5861 5863 5866 5868 5869 5870 5872 5874 5876 5877 5879 5880 5882 5883 5885 5885 5886 5887 5889 5890 5892 5893 5894 5895 5896 5897 5898 5898 5899 5899 5900 5902 5903 5903 5903
5680 5686 5695 5701 5705 5713 5719 5722 5727 5730 5731 5736 5744 5749 5752 5755 5760 5766 5772 5777 5781 5786 5791 5796 5798 5801 5806 5811 5814 5817 5819 5820 5821 5824 5825 5827 5829 5831 5833 5835 5837 5839 5840 5841 5844 5847 5849 5850 5852 5854 5856 5858 5861 5863 5865 5867 5868 5870 5872 5873 5874 5876 5878 5880 5881 5882 5883 5884 5885 5887 5888 5890 5891 5892 5893 5894 5894 5895 5896 5897 5897 5898 5900 5900 5901 5901
5675 5684 5691 5693 5700 5710 5713 5715 5721 5722 5723 5732 5740 5743 5747 5751 5754 5760 5766 5772 5776 5782 5788 5793 5793 5796 5802 5806 5809 5812 5815 5817 5818 5820 5823 5825 5827 5830 5832 5834 5836 5837 5839 5841 5843 5845 5846 5848 5850 5852 5854 5856 5858 5860 5863 5865 5866 5868 5869 5870 5872 5874 5876 5878 5878 5880 5881 5882 5884 5885 5886 5887 5889 5890 5890 5891 5892 5893 5894 5895 5896 5896 5897 5898 5898 5898
5672 5679 5682 5687 5697 5704 5704 5708 5713 5714 5719 5729 5734 5736 5740 5744 5748 5755 5761 5766 5771 5778 5784 5787 5788 5792 5797 5799 5802 5806 5810 5813 5816 5818 5821 5824 5826 5828 5830 5832 5834 5836 5838 5839 5841 5843 5845 5847 5849 5851 5852 5854 5856 5858 5860 5863 5864 5866 5866 5868 5871 5872 5874 5875 5876 5877 5879 5880 5882 5883 5884 5885 5886 5887 5888 5889 5890 5891 5892 5893 5894 5894 5894 5895 5895 5896
5666 5671 5676 5683 5692 5697 5698 5701 5706 5710 5716 5722 5725 5728 5732 5736 5742 5749 5754 5759 5766 5773 5777 5781 5783 5787 5790 5792 5796 5802 5807 5811 5814 5818 5820 5822 5823 5825 5827 5829 5831 5833 5834 5836 5838 5841 5843 5845 5847 5848 5850 5852 5854 5856 5858 5860 5862 5863 5865 5866 5868 5870 5871 5873 5874 5875 5877 5878 5880 5881 5882 5883 5884 5885 5886 5887 5888 5889 5890 5891 5891 5891 5891 5892 5893 5893
5660 5666 5672 5677 5684 5691 5693 5696 5700 5705 5710 5714 5717 5721 5726 5731 5737 5742 5747 5753 5760 5764 5769 5773 5777 5780 5784 5787 5793 5799 5804 5807 5812 5815 5816 5817 5819 5821 5823 5825 5826 5828 5831 5833 5836 5839 5841 5843 5844 5846 5848 5850 5852 5854 5856 5858 5860 5861 5863 5864 5866 5868 5869 5871 5872 5873 5875 5876 5877 5878 5880 5881 5882 5883 5884 5885 5886 5887 5888 5888 5888 5889 5889 5890 5890 5891
5654 5660 5666 5671 5678 5685 5689 5691 5695 5700 5705 5710 5713 5716 5721 5728 5732 5736 5741 5747 5753 5757 5762 5769 5774 5778 5782 5786 5789 5794 5798 5803 5807 5810 5810 5812 5814 5816 5819 5821 5823 5826 5829 5832 5834 5836 5838 5840 5842 5844 5846 5847 5849 5852 5854 5855 5857 5858 5860 5862 5864 5865 5867 5869 5870 5871 5872 5874 5875 5876 5878 5879 5880 5881 5882 5883 5884 5885 5886 5886 5886 5886 5887 5887 5888 5888
5648 5654 5658 5664 5671 5678 5682 5685 5689 5696 5703 5707 5707 5709 5715 5721 5723 5727 5735 5741 5746 5751 5756 5764 5771 5773 5776 5780 5782 5787 5793 5798 5802 5803 5803 5807 5811 5813 5816 5818 5821 5824 5826 5828 5830 5833 5835 5837 5839 5841 5843 5845 5847 5849 5851 5853 5854 5855 5857 5859 5861 5862 5864 5866 5868 5869 5870 5871 5872 5874 5875 5876 5877 5878 5879 5881 5881 5882 5883 5883 5884 5884 5885 5885 5886 5886
5642 5647 5652 5658 5665 5671 5675 5680 5686 5693 5697 5699 5699 5701 5706 5711 5715 5721 5729 5734 5738 5744 5750 5758 5764 5765 5769 5774 5777 5782 5788 5791 5794 5796 5799 5804 5809 5810 5813 5816 5817 5819 5821 5823 5826 5829 5831 5833 5836 5838 5840 5842 5844 5846 5848 5850 5851 5853 5854 5856 5857 5859 5861 5863 5864 5865 5867 5868 5869 5871 5872 5873 5875 5876 5876 5878 5878 5879 5880 5880 5881 5882 5882 5883 5883 5883
5636 5641 5647 5653 5659 5665 5670 5675 5681 5687 5689 5690 5693 5695 5699 5704 5709 5715 5722 5727 5732 5738 5744 5750 5756 5760 5765 5770 5773 5777 5781 5785 5789 5792 5796 5801 5804 5806 5809 5812 5814 5816 5817 5820 5823 5825 5827 5829 5831 5834 5836 5839 5841 5843 5844 5846 5848 5849 5851 5853 5854 5856 5857 5859 5860 5862 5863 5865 5866 5867 5869 5870 5872 5873 5873 5874 5875 5876 5877 5877 5878 5879 5879 5880 5880 5880
5632 5637 5641 5647 5653 5659 5664 5668 5675 5681 5681 5681 5686 5689 5692 5697 5702 5708 5716 5721 5726 5732 5737 5743 5750 5756 5760 5765 5768 5772 5776 5781 5785 5788 5792 5796 5799 5802 5805 5807 5809 5812 5813 5816 5818 5820 5823 5825 5827 5829 5832 5834 5837 5839 5841 5843 5844 5846 5848 5849 5851 5852 5853 5854 5857 5858 5860 5862 5863 5864 5865 5867 5868 5869 5870 5871 5872 5873 5873 5874 5875 5875 5876 5876 5876 5876
5626 5631 5636 5642 5648 5654 5658 5660 5666 5671 5671 5673 5680 5683 5684 5690 5696 5703 5710 5715 5719 5725 5730 5736 5743 5750 5755 5760 5764 5768 5772 5776 5781 5784 5787 5791 5795 5798 5800 5802 5805 5807 5809 5812 5814 5817 5819 5822 5824 5825 5827 5830 5832 5835 5837 5839 5840 5842 5844 5846 5847 5848 5849 5851 5853 5855 5856 5858 5859 5860 5861 5863 5864 5865 5866 5867 5868 5869 5869 5870 5870 5871 5871 5872 5872 5872
5620 5624 5630 5636 5640 5645 5650 5653 5657 5660 5662 5667 5673 5674 5676 5684 5693 5699 5704 5709 5713 5719 5724 5729 5736 5743 5749 5755 5759 5763 5767 5771 5775 5779 5783 5786 5790 5793 5795 5798 5801 5803 5805 5808 5810 5813 5815 5817 5819 5821 5824 5826 5829 5831 5832 5835 5837 5838 5840 5842 5844 5845 5846 5847 5849 5851 5852 5854 5855 5856 5857 5859 5860 5861 5862 5863 5863 5864 5865 5865 5866 5866 5867 5867 5867 5867
5614 5618 5623 5627 5630 5635 5642 5645 5647 5650 5655 5662 5666 5667 5671 5681 5688 5693 5698 5702 5707 5714 5719 5724 5730 5736 5743 5749 5754 5758 5761 5765 5769 5774 5778 5782 5785 5788 5791 5794 5796 5799 5801 5803 5806 5808 5810 5812 5815 5818 5820 5823 5825 5827 5829 5831 5833 5834 5836 5838 5839 5841 5842 5844 5846 5847 5849 5850 5851 5852 5853 5854 5856 5857 5858 5858 5859 5860 5861 5861 5861 5862 5862 5862 5862 5862
5608 5613 5617 5620 5624 5630 5637 5641 5642 5646 5651 5656 5658 5662 5668 5676 5682 5687 5692 5696 5702 5709 5714 5719 5724 5729 5735 5742 5748 5753 5757 5760 5765 5769 5773 5777 5780 5783 5786 5789 5791 5794 5797 5799 5802 5804 5806 5809 5812 5814 5816 5819 5821 5823 5825 5827 5828 5830 5832 5833 5835 5836 5838 5840 5842 5843 5844 5846 5847 5848 5849 5850 5852 5853 5854 5854 5855 5856 5857 5857 5857 5857 5858 5858 5858 5858
5605 5608 5611 5614 5618 5623 5629 5635 5638 5641 5644 5646 5650 5658 5665 5670 5673 5679 5686 5691 5697 5703 5708 5713 5718 5723 5729 5735 5742 5748 5753 5757 5760 5764 5767 5771 5775 5778 5781 5783 5786 5789 5792 5795 5798 5800 5802 5804 5807 5810 5812 5814 5816 5818 5820 5822 5824 5826 5827 5829 5830 5832 5834 5835 5837 5839 5840 5841 5842 5844 5845 5846 5848 5849 5850 5850 5851 5851 5852 5853 5853 5853 5853 5853 5854 5854
5600 5602 5605 5609 5612 5615 5621 5627 5630 5631 5635 5641 5648 5657 5662 5663 5666 5674 5681 5687 5692 5697 5702 5708 5713 5718 5723 5728 5735 5742 5748 5752 5756 5758 5762 5765 5769 5772 5775 5778 5781 5784 5787 5791 5793 5795 5797 5800 5802 5805 5807 5810 5812 5814 5816 5817 5819 5821 5823 5825 5826 5828 5829 5831 5832 5834 5835 5837 5838 5839 5840 5841 5843 5844 5845 5845 5846 5846 5847 5847 5848 5848 5848 5848 5848 5848
5595 5598 5603 5606 5608 5610 5615 5620 5624 5627 5634 5642 5648 5651 5653 5655 5661 5668 5675 5681 5686 5691 5696 5702 5707 5712 5717 5722 5729 5736 5742 5747 5751 5754 5756 5760 5763 5767 5770 5773 5776 5779 5782 5786 5789 5791 5793 5795 5797 5799 5802 5804 5807 5809 5811 5813 5815 5816 5818 5820 5821 5823 5824 5826 5827 5829 5830 5831 5832 5834 5835 5836 5837 5838 5839 5840 5840 5841 5841 5842 5842 5842 5842 5842 5842 5842
5593 5598 5601 5602 5603 5606 5610 5615 5620 5625 5629 5634 5638 5640 5643 5649 5657 5663 5669 5675 5680 5685 5690 5695 5701 5707 5712 5717 5723 5730 5736 5741 5746 5749 5752 5755 5758 5761 5764 5767 5771 5774 5777 5780 5783 5786 5788 5790 5792 5794 5796 5799 5801 5803 5805 5807 5809 5811 5813 5815 5816 5818 5819 5821 5822 5823 5824 5826 5827 5829 5830 5830 5831 5832 5833 5834 5834 5835 5835 5836 5836 5836 5836 5836 5836 5836
5591 5594 5596 5596 5599 5603 5606 5610 5615 5618 5620 5626 5632 5636 5640 5648 5654 5659 5664 5669 5674 5678 5683 5689 5695 5701 5706 5711 5717 5723 5729 5735 5740 5744 5746 5750 5753 5756 5759 5762 5765 5768 5771 5774 5777 5780 5783 5785 5787 5789 5791 5793 5795 5798 5800 5802 5804 5806 5808 5810 5811 5813 5814 5815 5816 5817 5819 5820 5822 5823 5824 5824 5826 5827 5827 5828 5828 5829 5829 5830 5830 5830 5830 5830 5829 5829